TimeEET,TemperatureF,Dew PointF,Humidity,Sea Level PressureIn,VisibilityMPH,Wind Direction,Wind SpeedMPH,Gust SpeedMPH,PrecipitationIn,Events,Conditions,WindDirDegrees,DateUTC
12:00 AM,33.8,28.4,81,29.80,6.2,West,11.2,-,N/A,,Overcast,270,2012-12-10 22:00:00
12:30 AM,33.8,28.4,81,29.80,6.2,WSW,6.7,-,N/A,,Mostly Cloudy,250,2012-12-10 22:30:00
1:00 AM,33.8,28.4,81,29.83,6.2,WSW,6.7,-,N/A,,Mostly Cloudy,250,2012-12-10 23:00:00
1:30 AM,33.8,28.4,81,29.83,6.2,WNW,8.9,-,N/A,,Mostly Cloudy,290,2012-12-10 23:30:00
2:00 AM,34,28,70,29.84,6,WNW,13.4,,,,Mostly Cloudy,290,2012-12-11 00:00:00
2:00 AM,33.8,28.4,81,29.83,6.2,WNW,6.7,-,N/A,,Overcast,290,2012-12-11 00:00:00
2:30 AM,33.8,28.4,81,29.86,6.2,WNW,8.9,-,N/A,,Overcast,300,2012-12-11 00:30:00
3:00 AM,33.8,28.4,81,29.83,6.2,NW,8.9,-,N/A,,Mostly Cloudy,310,2012-12-11 01:00:00
3:30 AM,33.8,28.4,81,29.83,6.2,WNW,6.7,-,N/A,,Mostly Cloudy,290,2012-12-11 01:30:00
4:00 AM,33.8,28.4,81,29.86,6.2,West,8.9,-,N/A,,Mostly Cloudy,260,2012-12-11 02:00:00
4:30 AM,33.8,28.4,81,29.86,6.2,West,6.7,-,N/A,,Mostly Cloudy,270,2012-12-11 02:30:00
5:00 AM,34,28,71,29.87,6,NW,4.5,,,,Mostly Cloudy,320,2012-12-11 03:00:00
5:00 AM,33.8,28.4,81,29.86,6.2,WNW,6.7,-,N/A,,Overcast,300,2012-12-11 03:00:00
5:30 AM,33.8,28.4,81,29.86,6.2,WNW,4.5,-,N/A,,Overcast,300,2012-12-11 03:30:00
6:00 AM,33.8,28.4,81,29.86,6.2,Variable,2.2,-,N/A,,Overcast,0,2012-12-11 04:00:00
6:30 AM,32.0,28.4,87,29.86,6.2,NW,6.7,-,N/A,,Mostly Cloudy,310,2012-12-11 04:30:00
7:00 AM,30.2,28.4,93,29.89,6.2,WNW,4.5,-,N/A,,Partly Cloudy,290,2012-12-11 05:00:00
7:30 AM,30.2,28.4,93,29.89,5.0,West,4.5,-,N/A,,Unknown,280,2012-12-11 05:30:00
8:00 AM,32,28,78,29.90,5,NW,2.2,,,,Mist,320,2012-12-11 06:00:00
8:00 AM,30.2,28.4,93,29.89,5.0,Variable,2.2,-,N/A,,Unknown,0,2012-12-11 06:00:00
8:30 AM,30.2,30.2,100,29.89,5.0,Calm,Calm,-,N/A,,Unknown,0,2012-12-11 06:30:00
9:00 AM,33.8,30.2,87,29.89,3.7,SSE,2.2,-,N/A,,Unknown,160,2012-12-11 07:00:00
9:30 AM,35.6,30.2,81,29.89,5.0,Variable,2.2,-,N/A,,Unknown,0,2012-12-11 07:30:00
10:00 AM,37.4,30.2,75,29.89,5.6,SSW,4.5,-,N/A,,Unknown,200,2012-12-11 08:00:00
10:30 AM,39.2,32.0,75,29.89,5.6,Variable,2.2,-,N/A,,Unknown,0,2012-12-11 08:30:00
11:00 AM,41,32,60,29.90,6,SE,4.5,,,,Scattered Clouds,140,2012-12-11 09:00:00
11:00 AM,39.2,32.0,75,29.86,-9999.0,ESE,6.7,-,N/A,,Clear,120,2012-12-11 09:00:00
11:30 AM,39.2,33.8,81,29.86,6.2,SE,6.7,-,N/A,,Partly Cloudy,130,2012-12-11 09:30:00
12:00 PM,41.0,35.6,81,29.86,6.2,ESE,8.9,-,N/A,,Scattered Clouds,120,2012-12-11 10:00:00
12:30 PM,41.0,35.6,81,29.86,6.2,SE,8.9,-,N/A,,Scattered Clouds,130,2012-12-11 10:30:00
1:00 PM,41.0,35.6,81,29.86,6.2,SE,11.2,-,N/A,,Mostly Cloudy,130,2012-12-11 11:00:00
1:30 PM,41.0,35.6,81,29.83,6.2,SE,8.9,-,N/A,,Mostly Cloudy,140,2012-12-11 11:30:00
2:00 PM,42,34,65,29.86,6,SE,8.9,,,,Overcast,140,2012-12-11 12:00:00
2:00 PM,41.0,35.6,81,29.83,6.2,ESE,11.2,-,N/A,,Scattered Clouds,110,2012-12-11 12:00:00
2:30 PM,41.0,35.6,81,29.80,6.2,ESE,8.9,-,N/A,,Partly Cloudy,110,2012-12-11 12:30:00
3:00 PM,41.0,35.6,81,29.80,6.2,ESE,11.2,-,N/A,,Partly Cloudy,110,2012-12-11 13:00:00
3:30 PM,41.0,35.6,81,29.80,6.2,ESE,8.9,-,N/A,,Partly Cloudy,110,2012-12-11 13:30:00
4:00 PM,41.0,37.4,87,29.80,6.2,East,8.9,-,N/A,,Scattered Clouds,90,2012-12-11 14:00:00
4:30 PM,41.0,37.4,87,29.80,6.2,East,11.2,-,N/A,,Scattered Clouds,80,2012-12-11 14:30:00
5:00 PM,41,35,71,29.82,6,ENE,6.7,,,,Overcast,70,2012-12-11 15:00:00
5:00 PM,41.0,37.4,87,29.80,6.2,East,8.9,-,N/A,,Mostly Cloudy,90,2012-12-11 15:00:00
5:30 PM,41.0,37.4,87,29.77,6.2,East,13.4,-,N/A,Rain,Light Rain,90,2012-12-11 15:30:00
6:00 PM,41.0,37.4,87,29.74,6.2,East,13.4,-,N/A,Rain,Light Rain,80,2012-12-11 16:00:00
6:30 PM,41.0,37.4,87,29.74,6.2,East,13.4,-,N/A,Rain,Light Rain,80,2012-12-11 16:30:00
7:00 PM,41.0,39.2,93,29.71,5.6,East,20.1,-,N/A,Rain,Light Rain,80,2012-12-11 17:00:00
7:30 PM,41.0,39.2,93,29.74,6.2,ENE,11.2,-,N/A,Rain,Light Rain,70,2012-12-11 17:30:00
7:51 PM,42.8,41.0,93,29.71,-9999.0,East,15.7,-,N/A,Rain,Rain,80,2012-12-11 17:51:00
8:00 PM,43,39,79,29.75,6,ENE,11.2,,,Rain,Light Rain,70,2012-12-11 18:00:00
8:00 PM,42.8,41.0,93,29.71,-9999.0,East,15.7,-,N/A,Rain,Rain,80,2012-12-11 18:00:00
8:30 PM,42.8,42.8,100,29.71,3.1,East,15.7,-,N/A,Rain,Rain,100,2012-12-11 18:30:00
9:00 PM,42.8,41.0,93,29.68,3.1,East,20.1,-,N/A,Rain,Light Rain,100,2012-12-11 19:00:00
9:30 PM,42.8,42.8,100,29.68,5.0,East,20.1,-,N/A,Rain,Light Rain,90,2012-12-11 19:30:00
10:00 PM,44.6,44.6,100,29.65,3.7,East,22.4,-,N/A,Rain,Light Rain,100,2012-12-11 20:00:00
10:30 PM,44.6,44.6,100,29.65,3.1,East,24.6,-,N/A,Rain,Light Rain,100,2012-12-11 20:30:00
11:00 PM,46,43,87,29.69,5,ESE,11.2,,,Rain,Rain,110,2012-12-11 21:00:00
11:00 PM,44.6,44.6,100,29.62,4.3,East,22.4,-,N/A,Rain,Light Rain,100,2012-12-11 21:00:00
11:30 PM,46.4,46.4,100,29.62,3.1,East,20.1,-,N/A,Rain,Light Rain,90,2012-12-11 21:30:00